Location: Campestrin
(46.4667°N, 11.7167°E)
Time: 03:09:34
(UTC+00:00)

SL-08 RB Rocket - Pass Details

Date: 18 April 2021
Orbit: 645 x 685 km, 97.8° (Epoch: 16 May)

Event Time Altitude Azimuth Distance (km) Brightness Sun altitude
Rises 18:31:34 0° 174° (S) 3,035 6.8 -5.1°
Reaches altitude 10° 18:33:50 10° 178° (S) 2,122 6.1 -5.5°
Maximum altitude 18:38:26 61° 259° (W) 772 4.4 -6.2°
Drops below altitude 10° 18:43:03 10° 340° (NNW) 2,124 7.0 -6.9°
Sets 18:45:19 0° 344° (NNW) 3,037 7.7 -7.3°
